QPF
0.00 0.00 0.00 0.00 0.00 0.00 0.01 0.00 0.01 0.01 0.01 0.01 0.00 0.01 0.02 0.03 0.04 0.04 0.03 0.04 0.05 0.05 0.07 0.08 0.09 0.16 0.19 0.17 0.15 0.12 0.11 0.11 0.11 0.08 0.09 0.11 0.09 0.09 0.08 0.07 0.06 0.05 0.05 0.06
0.00 0.00 0.00 0.00 0.00 0.00 0.01 0.00 0.01 0.02 0.02 0.01 0.01 0.01 0.02 0.03 0.03 0.05 0.06 0.06 0.06 0.06 0.07 0.08 0.10 0.10 0.11 0.08 0.08 0.09 0.10 0.10 0.08 0.07 0.07 0.06 0.07 0.07 0.05 0.04 0.04 0.04 0.04 0.05
0.00 0.00 0.00 0.00 0.00 0.00 0.00 0.01 0.01 0.02 0.02 0.02 0.01 0.01 0.01 0.02 0.02 0.05 0.08 0.09 0.10 0.08 0.07 0.06 0.06 0.07 0.08 0.08 0.07 0.07 0.08 0.09 0.08 0.07 0.05 0.04 0.04 0.04 0.05 0.04 0.04 0.05 0.05 0.05
0.00 0.00 0.00 0.00 0.00 0.00 0.00 0.01 0.01 0.02 0.02 0.01 0.01 0.01 0.01 0.01 0.02 0.02 0.07 0.07 0.06 0.06 0.05 0.04 0.04 0.05 0.07 0.07 0.07 0.08 0.08 0.07 0.07 0.06 0.04 0.03 0.03 0.05 0.05 0.04 0.02 0.02 0.03 0.03
0.00 0.00 0.00 0.00 0.00 0.00 0.01 0.01 0.01 0.01 0.01 0.00 0.00 0.01 0.02 0.02 0.01 0.01 0.03 0.04 0.04 0.04 0.04 0.03 0.02 0.05 0.07 0.08 0.07 0.07 0.07 0.06 0.06 0.05 0.04 0.03 0.04 0.04 0.04 0.02 0.01 0.01 0.01 0.01
0.00 0.00 0.00 0.00 0.00 0.00 0.00 0.01 0.01 0.00 0.00 0.00 0.00 0.01 0.01 0.01 0.01 0.01 0.01 0.02 0.03 0.02 0.01 0.01 0.02 0.05 0.09 0.09 0.08 0.07 0.05 0.05 0.05 0.05 0.04 0.04 0.03 0.03 0.02 0.03 0.02 0.01 0.01 0.01
0.00 0.00 0.00 0.00 0.00 0.00 0.00 0.00 0.00 0.00 0.00 0.00 0.00 0.00 0.00 0.01 0.01 0.01 0.01 0.01 0.02 0.01 0.01 0.02 0.03 0.05 0.07 0.08 0.09 0.09 0.08 0.08 0.07 0.05 0.04 0.03 0.02 0.01 0.02 0.02 0.02 0.02 0.01 0.02
0.00 0.00 0.00 0.00 0.00 0.00 0.00 0.00 0.00 0.00 0.00 0.00 0.00 0.01 0.01 0.02 0.01 0.02 0.01 0.02 0.02 0.02 0.01 0.02 0.03 0.05 0.07 0.08 0.09 0.10 0.10 0.10 0.09 0.07 0.05 0.04 0.04 0.02 0.02 0.02 0.02 0.03 0.03 0.03
0.00 0.00 0.00 0.00 0.00 0.00 0.00 0.00 0.00 0.00 0.00 0.00 0.01 0.01 0.01 0.02 0.02 0.02 0.01 0.02 0.02 0.02 0.02 0.02 0.03 0.06 0.08 0.09 0.10 0.10 0.10 0.09 0.10 0.10 0.07 0.05 0.05 0.04 0.03 0.02 0.02 0.03 0.04 0.06
0.00 0.00 0.00 0.00 0.00 0.01 0.00 0.00 0.00 0.01 0.00 0.00 0.00 0.01 0.01 0.02 0.05 0.03 0.02 0.02 0.03 0.03 0.02 0.03 0.04 0.05 0.06 0.07 0.06 0.05 0.05 0.06 0.08 0.08 0.05 0.05 0.06 0.05 0.05 0.05 0.05 0.06 0.09 0.13
0.00 0.00 0.00 0.00 0.01 0.01 0.01 0.01 0.00 0.01 0.01 0.01 0.00 0.00 0.01 0.01 0.03 0.04 0.02 0.03 0.05 0.03 0.02 0.03 0.04 0.03 0.03 0.03 0.02 0.02 0.03 0.04 0.05 0.05 0.05 0.07 0.09 0.10 0.08 0.06 0.07 0.09 0.12 0.13
0.00 0.00 0.00 0.01 0.01 0.01 0.01 0.01 0.01 0.01 0.01 0.01 0.00 0.00 0.01 0.01 0.01 0.01 0.01 0.04 0.06 0.04 0.02 0.02 0.03 0.03 0.02 0.02 0.01 0.02 0.02 0.03 0.03 0.04 0.06 0.10 0.10 0.09 0.08 0.06 0.06 0.07 0.07 0.07
0.00 0.01 0.00 0.00 0.00 0.01 0.02 0.01 0.01 0.01 0.00 0.00 0.00 0.01 0.01 0.01 0.01 0.02 0.03 0.03 0.03 0.02 0.02 0.03 0.04 0.03 0.02 0.01 0.01 0.01 0.02 0.02 0.03 0.04 0.04 0.06 0.06 0.05 0.05 0.04 0.04 0.03 0.03 0.03
0.01 0.01 0.00 0.00 0.01 0.01 0.01 0.01 0.01 0.01 0.01 0.01 0.00 0.00 0.01 0.01 0.02 0.02 0.04 0.04 0.04 0.03 0.02 0.03 0.03 0.03 0.02 0.01 0.01 0.01 0.01 0.02 0.04 0.05 0.06 0.06 0.05 0.05 0.05 0.05 0.03 0.03 0.03 0.02
0.01 0.01 0.01 0.00 0.00 0.01 0.01 0.01 0.01 0.01 0.01 0.01 0.00 0.00 0.01 0.01 0.01 0.02 0.04 0.04 0.03 0.03 0.03 0.02 0.02 0.02 0.02 0.01 0.01 0.01 0.02 0.03 0.04 0.05 0.06 0.08 0.08 0.07 0.06 0.06 0.05 0.04 0.03 0.03
0.01 0.01 0.00 0.00 0.00 0.01 0.01 0.01 0.01 0.01 0.01 0.00 0.00 0.00 0.00 0.00 0.01 0.00 0.01 0.02 0.03 0.02 0.03 0.03 0.03 0.03 0.02 0.01 0.01 0.01 0.02 0.02 0.03 0.05 0.07 0.07 0.08 0.08 0.08 0.08 0.06 0.05 0.03 0.03
0.01 0.01 0.01 0.01 0.00 0.01 0.01 0.01 0.01 0.01 0.01 0.00 0.00 0.00 0.00 0.01 0.01 0.01 0.01 0.02 0.02 0.02 0.03 0.03 0.03 0.02 0.02 0.01 0.01 0.01 0.01 0.01 0.01 0.02 0.05 0.06 0.05 0.06 0.07 0.06 0.04 0.04 0.04 0.04
0.01 0.01 0.01 0.01 0.01 0.01 0.00 0.00 0.00 0.01 0.01 0.01 0.01 0.01 0.01 0.01 0.01 0.02 0.02 0.02 0.03 0.03 0.02 0.03 0.03 0.03 0.03 0.02 0.01 0.01 0.01 0.01 0.02 0.01 0.02 0.03 0.03 0.03 0.03 0.03 0.04 0.05 0.07 0.06
0.01 0.02 0.01 0.02 0.01 0.00 0.00 0.00 0.00 0.01 0.01 0.01 0.01 0.01 0.01 0.02 0.01 0.01 0.02 0.02 0.03 0.04 0.03 0.02 0.02 0.03 0.04 0.03 0.03 0.02 0.01 0.01 0.01 0.02 0.02 0.02 0.02 0.02 0.01 0.02 0.03 0.04 0.07 0.05
0.01 0.01 0.01 0.01 0.01 0.01 0.01 0.00 0.01 0.01 0.02 0.01 0.00 0.00 0.01 0.01 0.02 0.02 0.02 0.02 0.03 0.04 0.03 0.03 0.03 0.02 0.03 0.03 0.04 0.04 0.02 0.01 0.01 0.01 0.01 0.01 0.01 0.02 0.01 0.03 0.05 0.05 0.04 0.02
0.01 0.01 0.01 0.02 0.02 0.01 0.01 0.00 0.01 0.01 0.01 0.01 0.00 0.01 0.01 0.01 0.02 0.02 0.02 0.02 0.02 0.03 0.03 0.04 0.05 0.04 0.04 0.04 0.05 0.04 0.02 0.01 0.01 0.01 0.01 0.01 0.01 0.02 0.02 0.03 0.04 0.04 0.02 0.01
0.02 0.02 0.02 0.02 0.03 0.03 0.01 0.01 0.02 0.01 0.01 0.01 0.01 0.01 0.01 0.01 0.01 0.02 0.03 0.03 0.03 0.03 0.04 0.04 0.05 0.05 0.05 0.05 0.05 0.04 0.02 0.01 0.01 0.01 0.01 0.00 0.01 0.02 0.03 0.03 0.03 0.02 0.01 0.01
0.02 0.02 0.02 0.02 0.03 0.03 0.02 0.02 0.01 0.01 0.01 0.01 0.01 0.01 0.01 0.01 0.01 0.02 0.02 0.02 0.02 0.03 0.03 0.04 0.04 0.04 0.05 0.05 0.06 0.05 0.03 0.02 0.01 0.01 0.00 0.00 0.01 0.03 0.04 0.04 0.02 0.01 0.00 0.00
0.02 0.02 0.02 0.02 0.02 0.02 0.01 0.01 0.01 0.01 0.01 0.01 0.01 0.01 0.02 0.02 0.02 0.02 0.01 0.02 0.02 0.02 0.02 0.03 0.04 0.04 0.04 0.05 0.06 0.05 0.03 0.02 0.01 0.01 0.01 0.01 0.02 0.05 0.04 0.03 0.01 0.00 0.00 0.00
0.01 0.02 0.02 0.02 0.01 0.01 0.01 0.00 0.00 0.01 0.01 0.01 0.01 0.02 0.02 0.03 0.03 0.02 0.02 0.02 0.02 0.02 0.02 0.02 0.03 0.05 0.05 0.06 0.06 0.05 0.03 0.02 0.02 0.02 0.01 0.02 0.05 0.05 0.02 0.01 0.01 0.00 0.00 0.00
0.01 0.01 0.02 0.02 0.03 0.03 0.02 0.01 0.01 0.00 0.00 0.01 0.01 0.01 0.02 0.03 0.03 0.02 0.02 0.02 0.01 0.01 0.02 0.02 0.03 0.05 0.05 0.05 0.07 0.06 0.04 0.03 0.02 0.02 0.03 0.04 0.06 0.04 0.02 0.01 0.00 0.00 0.00 0.00
MSLP
1010.06 1010.35 1010.48 1010.53 1010.56 1010.67 1010.91 1011.29 1011.80 1012.35 1012.87 1013.26 1013.47 1013.48 1013.30 1013.01 1012.71 1012.51 1012.49 1012.69 1013.13 1013.76 1014.51 1015.29 1016.00 1016.59 1017.02 1017.28 1017.41 1017.47 1017.50 1017.56 1017.67 1017.84 1018.05 1018.26 1018.44 1018.56 1018.60 1018.56 1018.46 1018.32 1018.16 1018.01
1010.16 1010.32 1010.32 1010.26 1010.23 1010.34 1010.65 1011.16 1011.83 1012.55 1013.22 1013.73 1013.99 1013.99 1013.76 1013.37 1012.97 1012.66 1012.55 1012.70 1013.12 1013.76 1014.55 1015.37 1016.13 1016.75 1017.20 1017.49 1017.64 1017.72 1017.79 1017.89 1018.05 1018.26 1018.50 1018.73 1018.90 1018.98 1018.96 1018.85 1018.67 1018.45 1018.25 1018.07
1010.14 1010.17 1010.07 1009.93 1009.89 1010.03 1010.41 1011.04 1011.84 1012.70 1013.47 1014.04 1014.32 1014.29 1013.99 1013.51 1013.01 1012.62 1012.45 1012.58 1013.01 1013.68 1014.51 1015.38 1016.17 1016.83 1017.30 1017.60 1017.78 1017.89 1017.99 1018.14 1018.36 1018.63 1018.91 1019.15 1019.32 1019.37 1019.29 1019.11 1018.85 1018.57 1018.29 1018.07
1009.95 1009.89 1009.72 1009.57 1009.54 1009.75 1010.23 1010.97 1011.89 1012.83 1013.66 1014.25 1014.51 1014.41 1014.03 1013.47 1012.90 1012.46 1012.28 1012.41 1012.87 1013.59 1014.48 1015.39 1016.23 1016.91 1017.40 1017.71 1017.90 1018.02 1018.15 1018.34 1018.60 1018.91 1019.22 1019.48 1019.64 1019.67 1019.54 1019.29 1018.97 1018.61 1018.27 1017.99
1009.62 1009.49 1009.30 1009.17 1009.22 1009.53 1010.13 1010.99 1012.00 1013.01 1013.86 1014.42 1014.62 1014.45 1013.99 1013.35 1012.73 1012.27 1012.09 1012.26 1012.78 1013.57 1014.52 1015.49 1016.37 1017.07 1017.57 1017.87 1018.05 1018.16 1018.30 1018.49 1018.76 1019.08 1019.41 1019.68 1019.83 1019.82 1019.66 1019.35 1018.96 1018.54 1018.14 1017.81
1009.19 1009.02 1008.85 1008.79 1008.94 1009.39 1010.13 1011.10 1012.20 1013.24 1014.08 1014.60 1014.72 1014.46 1013.92 1013.22 1012.56 1012.10 1011.96 1012.19 1012.78 1013.64 1014.66 1015.69 1016.60 1017.31 1017.80 1018.09 1018.23 1018.32 1018.42 1018.59 1018.84 1019.14 1019.45 1019.70 1019.83 1019.80 1019.60 1019.26 1018.82 1018.35 1017.91 1017.54
1008.76 1008.56 1008.43 1008.46 1008.75 1009.33 1010.21 1011.29 1012.45 1013.51 1014.33 1014.78 1014.82 1014.47 1013.85 1013.11 1012.43 1011.99 1011.89 1012.19 1012.85 1013.79 1014.87 1015.94 1016.88 1017.60 1018.07 1018.33 1018.43 1018.47 1018.52 1018.63 1018.83 1019.09 1019.36 1019.57 1019.66 1019.60 1019.38 1019.01 1018.55 1018.06 1017.59 1017.19
1008.42 1008.21 1008.12 1008.24 1008.64 1009.36 1010.34 1011.51 1012.70 1013.76 1014.52 1014.91 1014.87 1014.45 1013.78 1013.01 1012.34 1011.92 1011.87 1012.23 1012.95 1013.95 1015.07 1016.17 1017.13 1017.85 1018.30 1018.53 1018.60 1018.58 1018.57 1018.62 1018.75 1018.94 1019.14 1019.30 1019.36 1019.27 1019.03 1018.65 1018.18 1017.69 1017.22 1016.82
1008.28 1008.03 1007.96 1008.14 1008.63 1009.43 1010.48 1011.68 1012.86 1013.88 1014.59 1014.90 1014.80 1014.33 1013.63 1012.86 1012.21 1011.84 1011.84 1012.24 1013.01 1014.04 1015.18 1016.30 1017.25 1017.97 1018.42 1018.63 1018.67 1018.62 1018.56 1018.54 1018.60 1018.72 1018.86 1018.96 1018.97 1018.86 1018.60 1018.23 1017.78 1017.30 1016.84 1016.45
1008.38 1008.09 1008.01 1008.20 1008.70 1009.51 1010.56 1011.72 1012.85 1013.80 1014.43 1014.67 1014.52 1014.04 1013.34 1012.61 1012.01 1011.69 1011.74 1012.18 1012.97 1014.00 1015.14 1016.25 1017.19 1017.91 1018.36 1018.57 1018.61 1018.55 1018.47 1018.42 1018.43 1018.49 1018.56 1018.61 1018.57 1018.43 1018.17 1017.81 1017.38 1016.93 1016.50 1016.13
1008.74 1008.38 1008.25 1008.39 1008.84 1009.58 1010.53 1011.59 1012.60 1013.43 1013.97 1014.15 1013.98 1013.51 1012.87 1012.21 1011.69 1011.44 1011.54 1012.01 1012.79 1013.80 1014.91 1015.99 1016.92 1017.63 1018.09 1018.34 1018.41 1018.38 1018.31 1018.26 1018.25 1018.27 1018.29 1018.29 1018.21 1018.05 1017.78 1017.43 1017.03 1016.61 1016.21 1015.86
1009.29 1008.86 1008.63 1008.68 1009.01 1009.60 1010.39 1011.27 1012.10 1012.79 1013.21 1013.34 1013.16 1012.74 1012.19 1011.65 1011.24 1011.09 1011.25 1011.74 1012.51 1013.48 1014.53 1015.56 1016.46 1017.16 1017.65 1017.95 1018.08 1018.11 1018.10 1018.07 1018.07 1018.07 1018.06 1018.02 1017.91 1017.72 1017.45 1017.11 1016.73 1016.35 1015.97 1015.64
1009.92 1009.41 1009.10 1009.01 1009.18 1009.57 1010.13 1010.78 1011.40 1011.90 1012.21 1012.27 1012.12 1011.78 1011.36 1010.96 1010.70 1010.66 1010.90 1011.41 1012.16 1013.07 1014.06 1015.02 1015.87 1016.57 1017.09 1017.44 1017.65 1017.77 1017.83 1017.86 1017.89 1017.89 1017.87 1017.80 1017.66 1017.45 1017.17 1016.84 1016.47 1016.11 1015.76 1015.44
1010.51 1009.95 1009.55 1009.33 1009.31 1009.48 1009.79 1010.18 1010.56 1010.87 1011.04 1011.06 1010.93 1010.70 1010.43 1010.20 1010.11 1010.21 1010.53 1011.07 1011.80 1012.65 1013.56 1014.44 1015.24 1015.92 1016.46 1016.86 1017.16 1017.36 1017.51 1017.62 1017.69 1017.71 1017.69 1017.60 1017.43 1017.20 1016.90 1016.57 1016.22 1015.87 1015.53 1015.22
1010.96 1010.38 1009.92 1009.59 1009.41 1009.36 1009.42 1009.54 1009.69 1009.79 1009.84 1009.81 1009.71 1009.59 1009.48 1009.44 1009.52 1009.77 1010.18 1010.76 1011.47 1012.26 1013.08 1013.88 1014.62 1015.26 1015.81 1016.25 1016.62 1016.91 1017.15 1017.32 1017.44 1017.50 1017.48 1017.37 1017.19 1016.94 1016.63 1016.29 1015.95 1015.60 1015.28 1014.97
1011.20 1010.65 1010.16 1009.76 1009.44 1009.21 1009.05 1008.94 1008.85 1008.77 1008.69 1008.62 1008.55 1008.53 1008.57 1008.71 1008.97 1009.35 1009.87 1010.49 1011.18 1011.92 1012.66 1013.37 1014.03 1014.63 1015.17 1015.64 1016.06 1016.42 1016.73 1016.97 1017.14 1017.22 1017.21 1017.10 1016.91 1016.64 1016.33 1015.99 1015.64 1015.31 1014.99 1014.68
1011.24 1010.73 1010.26 1009.83 1009.43 1009.06 1008.71 1008.40 1008.12 1007.87 1007.68 1007.55 1007.51 1007.56 1007.73 1008.03 1008.44 1008.96 1009.56 1010.22 1010.91 1011.60 1012.27 1012.90 1013.49 1014.04 1014.56 1015.04 1015.49 1015.90 1016.27 1016.56 1016.77 1016.88 1016.88 1016.78 1016.59 1016.32 1016.00 1015.66 1015.32 1014.99 1014.67 1014.35
1011.12 1010.68 1010.25 1009.81 1009.36 1008.90 1008.42 1007.95 1007.50 1007.12 1006.82 1006.64 1006.60 1006.71 1006.98 1007.40 1007.93 1008.56 1009.24 1009.94 1010.63 1011.28 1011.89 1012.46 1012.99 1013.49 1013.98 1014.46 1014.93 1015.37 1015.77 1016.11 1016.35 1016.49 1016.51 1016.43 1016.24 1015.98 1015.67 1015.34 1015.00 1014.67 1014.35 1014.02
1010.94 1010.55 1010.16 1009.73 1009.26 1008.73 1008.16 1007.57 1007.00 1006.50 1006.11 1005.88 1005.82 1005.97 1006.29 1006.79 1007.41 1008.12 1008.86 1009.60 1010.29 1010.93 1011.51 1012.03 1012.52 1012.99 1013.45 1013.92 1014.40 1014.86 1015.28 1015.64 1015.92 1016.08 1016.13 1016.07 1015.90 1015.66 1015.36 1015.04 1014.71 1014.38 1014.05 1013.71
1010.81 1010.43 1010.04 1009.61 1009.11 1008.54 1007.90 1007.23 1006.57 1005.98 1005.52 1005.23 1005.16 1005.30 1005.66 1006.20 1006.88 1007.65 1008.43 1009.20 1009.91 1010.55 1011.12 1011.62 1012.09 1012.54 1012.99 1013.46 1013.93 1014.40 1014.84 1015.22 1015.51 1015.70 1015.77 1015.73 1015.59 1015.37 1015.09 1014.78 1014.46 1014.13 1013.78 1013.42
1010.77 1010.34 1009.92 1009.46 1008.92 1008.30 1007.61 1006.88 1006.16 1005.51 1005.00 1004.68 1004.58 1004.72 1005.09 1005.66 1006.37 1007.16 1007.99 1008.78 1009.52 1010.18 1010.75 1011.26 1011.73 1012.18 1012.63 1013.09 1013.56 1014.03 1014.47 1014.85 1015.16 1015.36 1015.45 1015.43 1015.31 1015.11 1014.85 1014.55 1014.23 1013.89 1013.53 1013.15
1010.82 1010.30 1009.80 1009.27 1008.67 1008.00 1007.27 1006.50 1005.75 1005.08 1004.55 1004.21 1004.10 1004.24 1004.61 1005.19 1005.91 1006.73 1007.58 1008.41 1009.17 1009.86 1010.46 1010.99 1011.47 1011.93 1012.38 1012.84 1013.30 1013.76 1014.19 1014.56 1014.86 1015.06 1015.16 1015.15 1015.05 1014.87 1014.62 1014.33 1014.01 1013.66 1013.28 1012.86
1010.92 1010.26 1009.64 1009.00 1008.34 1007.62 1006.85 1006.07 1005.33 1004.66 1004.15 1003.83 1003.73 1003.88 1004.26 1004.85 1005.59 1006.42 1007.29 1008.13 1008.93 1009.64 1010.27 1010.83 1011.33 1011.80 1012.26 1012.71 1013.15 1013.59 1013.99 1014.33 1014.61 1014.80 1014.88 1014.88 1014.78 1014.60 1014.36 1014.07 1013.74 1013.38 1012.98 1012.54
1010.94 1010.14 1009.38 1008.64 1007.89 1007.13 1006.36 1005.60 1004.89 1004.29 1003.82 1003.55 1003.51 1003.69 1004.09 1004.69 1005.44 1006.28 1007.15 1008.01 1008.82 1009.55 1010.21 1010.79 1011.30 1011.78 1012.23 1012.66 1013.07 1013.47 1013.82 1014.13 1014.36 1014.52 1014.59 1014.56 1014.46 1014.28 1014.04 1013.74 1013.41 1013.03 1012.61 1012.15
1010.78 1009.84 1008.96 1008.13 1007.33 1006.56 1005.81 1005.10 1004.47 1003.96 1003.59 1003.41 1003.44 1003.68 1004.12 1004.74 1005.49 1006.32 1007.19 1008.04 1008.85 1009.58 1010.24 1010.83 1011.34 1011.81 1012.23 1012.63 1013.01 1013.35 1013.65 1013.90 1014.09 1014.20 1014.23 1014.19 1014.07 1013.88 1013.64 1013.34 1012.99 1012.61 1012.18 1011.71
1010.34 1009.30 1008.35 1007.47 1006.65 1005.90 1005.21 1004.60 1004.09 1003.70 1003.46 1003.40 1003.53 1003.84 1004.33 1004.97 1005.72 1006.54 1007.37 1008.20 1008.97 1009.69 1010.32 1010.88 1011.38 1011.81 1012.21 1012.56 1012.88 1013.17 1013.42 1013.61 1013.74 1013.82 1013.82 1013.75 1013.62 1013.43 1013.17 1012.87 1012.53 1012.13 1011.70 1011.22
Thickness
5730 5718 5711 5717 5721 5724 5720 5714 5712 5720 5732 5727 5723 5725 5734 5739 5738 5736 5735 5735 5735 5735 5736 5734 5732 5730 5726 5722 5718 5715 5710 5707 5703 5698 5694 5690 5688 5685 5682 5680 5678 5675 5672 5669
5719 5716 5727 5732 5729 5725 5719 5712 5712 5719 5729 5725 5718 5721 5731 5734 5734 5735 5734 5733 5732 5730 5728 5728 5726 5724 5721 5717 5713 5709 5705 5701 5698 5694 5690 5686 5683 5679 5676 5673 5671 5668 5665 5662
5719 5727 5737 5733 5727 5722 5719 5715 5716 5716 5721 5721 5716 5713 5722 5730 5732 5733 5733 5733 5731 5729 5726 5724 5721 5718 5716 5712 5709 5706 5701 5696 5692 5688 5684 5680 5676 5672 5669 5666 5663 5661 5658 5655
5723 5732 5734 5730 5726 5725 5714 5728 5725 5719 5708 5699 5707 5690 5711 5719 5722 5726 5728 5728 5727 5726 5724 5721 5718 5715 5712 5708 5704 5700 5695 5691 5687 5683 5679 5674 5670 5665 5662 5659 5657 5654 5651 5649
5724 5732 5731 5727 5731 5732 5726 5730 5723 5716 5705 5695 5697 5689 5699 5713 5714 5720 5725 5727 5727 5725 5722 5719 5716 5713 5708 5703 5699 5694 5689 5685 5681 5677 5673 5668 5664 5660 5656 5653 5650 5647 5645 5642
5728 5739 5737 5736 5740 5738 5731 5721 5712 5700 5692 5682 5692 5686 5689 5702 5712 5718 5723 5725 5725 5723 5719 5716 5713 5708 5703 5698 5693 5689 5685 5679 5675 5671 5666 5662 5658 5653 5650 5647 5644 5641 5638 5635
5715 5728 5737 5741 5731 5730 5722 5702 5683 5680 5671 5676 5692 5686 5690 5712 5719 5719 5720 5722 5721 5718 5715 5711 5707 5702 5698 5693 5688 5684 5679 5675 5670 5665 5661 5657 5653 5649 5645 5641 5637 5634 5631 5628
5695 5701 5725 5732 5727 5718 5714 5705 5681 5671 5666 5673 5686 5683 5699 5717 5719 5720 5719 5718 5717 5713 5710 5707 5703 5698 5694 5688 5684 5679 5674 5669 5665 5660 5656 5652 5648 5644 5640 5636 5632 5629 5625 5623
5690 5697 5725 5732 5733 5726 5711 5700 5700 5680 5674 5666 5674 5688 5702 5714 5714 5714 5713 5712 5709 5707 5705 5702 5699 5694 5690 5684 5679 5674 5670 5665 5661 5657 5653 5648 5644 5640 5635 5631 5627 5624 5621 5618
5698 5692 5711 5723 5728 5724 5715 5701 5685 5674 5663 5658 5669 5679 5684 5699 5702 5705 5705 5706 5705 5702 5699 5697 5694 5690 5686 5680 5675 5670 5666 5661 5657 5653 5648 5645 5641 5636 5632 5628 5624 5620 5617 5614
5699 5686 5694 5705 5706 5704 5703 5696 5682 5669 5668 5658 5654 5671 5699 5698 5701 5699 5700 5700 5699 5696 5693 5690 5688 5685 5681 5676 5672 5666 5662 5658 5654 5650 5645 5640 5636 5633 5629 5625 5621 5617 5614 5610
5690 5678 5674 5690 5706 5710 5704 5695 5680 5669 5665 5659 5654 5668 5702 5699 5698 5696 5695 5696 5694 5692 5690 5687 5683 5680 5675 5671 5668 5663 5659 5655 5651 5646 5642 5637 5633 5629 5626 5622 5619 5615 5611 5608
5685 5671 5662 5671 5682 5693 5691 5689 5681 5669 5658 5651 5650 5669 5696 5694 5693 5692 5690 5689 5688 5686 5684 5681 5678 5675 5671 5667 5663 5659 5656 5652 5648 5643 5638 5634 5629 5626 5623 5620 5617 5613 5609 5605
5684 5665 5659 5657 5665 5676 5678 5681 5678 5667 5652 5652 5660 5671 5681 5683 5683 5682 5682 5682 5681 5679 5678 5676 5673 5670 5667 5663 5660 5655 5651 5648 5644 5640 5635 5631 5627 5624 5621 5617 5614 5611 5607 5603
5671 5660 5663 5667 5674 5675 5675 5676 5675 5669 5664 5658 5666 5669 5674 5676 5676 5676 5676 5675 5674 5672 5671 5670 5668 5665 5663 5659 5655 5651 5647 5644 5640 5636 5632 5629 5625 5622 5618 5615 5612 5609 5605 5602
5656 5653 5656 5660 5670 5669 5668 5671 5671 5670 5668 5665 5666 5666 5671 5671 5671 5669 5668 5668 5666 5665 5665 5664 5663 5660 5658 5655 5652 5648 5644 5640 5637 5634 5630 5627 5623 5619 5615 5612 5609 5606 5603 5600
5644 5642 5641 5641 5654 5658 5653 5664 5665 5664 5664 5661 5655 5658 5661 5661 5663 5663 5663 5662 5660 5659 5660 5659 5658 5656 5653 5651 5648 5645 5641 5637 5634 5631 5628 5625 5621 5617 5613 5610 5607 5603 5600 5597
5638 5632 5626 5627 5638 5635 5651 5665 5664 5659 5655 5655 5654 5654 5655 5656 5658 5660 5659 5657 5656 5656 5655 5654 5653 5652 5649 5648 5645 5642 5638 5635 5631 5628 5625 5622 5618 5615 5611 5607 5604 5601 5598 5595
5637 5629 5621 5617 5621 5632 5648 5655 5653 5648 5647 5648 5646 5646 5647 5650 5653 5653 5655 5654 5653 5652 5651 5650 5650 5649 5646 5644 5642 5639 5635 5632 5629 5626 5623 5620 5617 5613 5609 5606 5602 5599 5596 5594
5631 5625 5617 5613 5615 5618 5634 5649 5654 5648 5636 5642 5640 5638 5637 5640 5637 5643 5650 5649 5649 5649 5647 5646 5646 5645 5643 5641 5638 5635 5632 5629 5627 5624 5621 5618 5615 5611 5608 5605 5601 5598 5595 5592
5618 5614 5611 5608 5609 5619 5636 5643 5645 5626 5623 5634 5634 5632 5631 5632 5634 5639 5643 5643 5644 5644 5644 5643 5642 5640 5639 5637 5634 5631 5629 5627 5625 5622 5619 5617 5613 5610 5607 5604 5601 5597 5594 5591
5608 5605 5604 5602 5601 5611 5633 5632 5624 5621 5627 5628 5629 5629 5628 5630 5632 5635 5637 5637 5638 5639 5638 5638 5637 5636 5635 5633 5631 5629 5627 5625 5622 5620 5617 5615 5612 5609 5607 5603 5599 5596 5592 5589
5604 5605 5602 5602 5606 5618 5622 5621 5623 5622 5621 5624 5624 5625 5625 5625 5628 5629 5630 5631 5633 5634 5634 5634 5633 5633 5631 5629 5628 5626 5625 5623 5620 5618 5615 5613 5610 5607 5605 5602 5599 5595 5592 5589
5604 5604 5599 5600 5610 5614 5617 5618 5620 5621 5620 5622 5622 5622 5622 5622 5624 5625 5626 5627 5628 5629 5629 5629 5629 5628 5628 5626 5625 5624 5623 5620 5618 5615 5613 5611 5608 5606 5604 5601 5599 5596 5593 5590
5597 5597 5593 5595 5604 5610 5616 5615 5615 5617 5618 5618 5619 5619 5619 5620 5621 5622 5623 5623 5624 5625 5626 5626 5625 5625 5625 5624 5623 5622 5621 5618 5615 5614 5611 5609 5607 5605 5603 5601 5599 5597 5595 5592
5595 5591 5589 5594 5601 5600 5607 5612 5612 5612 5613 5615 5616 5616 5618 5618 5618 5620 5620 5620 5621 5622 5622 5622 5623 5622 5623 5622 5622 5622 5620 5618 5614 5612 5610 5608 5606 5604 5603 5601 5599 5599 5597 5595